This is the latest recevied weather packets stored in our database for station/object SP8PUB-10. If no packets are shown the sender has not sent any weather packets the latest 10 day(s).
| Time | Temp. | Humidity | Pressure | Rain* | Wind** | Luminosity | Snow |
|---|---|---|---|---|---|---|---|
| 1777904888 | 26.67° C | 35% | 1014.3 hPa | - | - | - | - |
| 1777903988 | 26.67° C | 34% | 1014.4 hPa | - | - | - | - |
| 1777903088 | 26.67° C | 34% | 1014.5 hPa | - | - | - | - |
| 1777902188 | 26.67° C | 34% | 1014.6 hPa | - | - | - | - |
| 1777901288 | 26.67° C | 34% | 1014.6 hPa | - | - | - | - |
| 1777900388 | 27.22° C | 33% | 1014.9 hPa | - | - | - | - |
| 1777899487 | 27.22° C | 32% | 1015.1 hPa | - | - | - | - |
| 1777898587 | 27.22° C | 33% | 1015.2 hPa | - | - | - | - |
| 1777897687 | 27.22° C | 32% | 1015.3 hPa | - | - | - | - |
| 1777896787 | 26.67° C | 32% | 1015.4 hPa | - | - | - | - |
| 1777895887 | 27.22° C | 34% | 1015.7 hPa | - | - | - | - |
| 1777894987 | 26.67° C | 33% | 1015.7 hPa | - | - | - | - |
| 1777894087 | 26.67° C | 34% | 1016 hPa | - | - | - | - |
| 1777893187 | 26.67° C | 35% | 1016.2 hPa | - | - | - | - |
| 1777892286 | 26.67° C | 36% | 1016.4 hPa | - | - | - | - |
| 1777890490 | 26.11° C | 35% | 1016.6 hPa | - | - | - | - |
| 1777889590 | 26.11° C | 37% | 1016.6 hPa | - | - | - | - |
| 1777888690 | 25.56° C | 38% | 1016.9 hPa | - | - | - | - |
| 1777887789 | 25.56° C | 37% | 1017 hPa | - | - | - | - |
| 1777886889 | 26.11° C | 37% | 1017.3 hPa | - | - | - | - |
| 1777885989 | 27.22° C | 37% | 1017.5 hPa | - | - | - | - |
| 1777885089 | 28.33° C | 36% | 1017.6 hPa | - | - | - | - |
| 1777884189 | 32.22° C | 34% | 1017.8 hPa | - | - | - | - |
| 1777883289 | 33.89° C | 33% | 1017.9 hPa | - | - | - | - |
| 1777882389 | 35° C | 32% | 1017.9 hPa | - | - | - | - |
* Rain since midnight (hover to see other rain measurements)
** Current wind speed in m/s (hover to see current wind gust speed)